[[{"header":{"parameterUnit":"m.s-1","parameterCategory":1,"la1":30.2991,"la2":30.254,"lo1":-89.0895,"lo2":-89.0444,"dy":0.0017,"dx":0.0017,"nx":28,"ny":28,"refTime":"2024-06-01T21:00:00:Z","depth":0,"parameterNumber":2,"parameterNumberName":"U-component_of_WINDS"},"data":[0,0,0,0,0,0,0,0,0,0,0,0,0,0,0,0,0,0,0,0,0,0,0,0,0,0,0,0,0,0,0,0,0,0,0,0,0,0,0,0,0,0,0,0,0,0,0,0,0,0,0,0,0,0,0,0,0,0,-2.1624,-2.1627,0,-2.189,-2.1893,-2.1896,-2.1994,-2.1994,-2.1993,-2.1992,-2.2263,-2.2271,-2.2279,0,0,0,0,0,0,0,0,0,0,0,0,0,-2.1195,-2.1203,-2.1624,-2.1627,-2.163,-2.189,-2.1893,-2.1897,-2.1995,-2.1994,-2.1992,-2.1991,-2.2261,-2.227,-2.228,0,0,0,0,0,0,0,0,0,0,0,0,0,-2.1413,-2.1205,-2.1623,-2.171,-2.1721,-2.1889,-2.1893,-2.1898,-2.1995,-2.1993,-2.1992,-2.1991,-2.2257,-2.2269,-2.2281,-2.2382,0,0,-2.2318,-2.2323,0,0,0,0,0,0,0,0,-2.1401,-2.1429,-2.1694,-2.1705,-2.1717,-2.1908,-2.1842,-2.206,-2.1995,-2.1891,-2.1992,-2.199,-2.2146,-2.2167,-2.222,-2.2394,-2.2406,-2.2319,-2.2326,-2.2331,-2.2335,0,0,0,0,0,0,0,-2.1386,-2.1418,-2.1729,-2.1698,-2.1712,-2.1735,-2.1764,-2.1884,-2.2022,-2.19,-2.1907,-2.1938,-2.2152,-2.2208,-2.2227,-2.241,-2.2319,-2.2329,-2.2337,-2.2341,-2.2677,-2.2679,0,0,0,0,0,0,-2.1356,-2.1405,-2.1721,-2.1737,-2.1552,-2.1743,-2.1777,-2.1848,-2.2021,-2.2047,-2.1939,-2.1941,-2.2188,-2.2213,-2.2237,-2.2365,-2.2331,-2.2343,-2.235,-2.2675,-2.2677,-2.2679,0,0,0,0,0,0,-2.1347,-2.1384,-2.171,-2.1573,-2.1616,-2.1752,-2.1831,-2.1854,-2.191,-2.2051,-2.2076,-2.1971,-2.2188,-2.222,-2.2344,-2.2375,-2.2348,-2.2359,-2.2673,-2.2676,-2.2678,-2.2621,0,0,0,0,0,0,-2.1334,-2.138,-2.142,-2.1573,-2.1623,-2.1814,-2.1833,-2.186,-2.1931,-2.1937,-2.2088,-2.2111,-2.2189,-2.2326,-2.2356,-2.2391,-2.2368,-2.2671,-2.2675,-2.2677,-2.2621,-2.2621,-2.2622,0,0,0,0,0,-2.1318,-2.1394,-2.1422,-2.146,-2.1677,-2.1816,-2.1844,-2.1933,-2.1933,-2.1974,-2.2064,-2.2107,-2.2367,-2.2338,-2.2373,-2.2412,-2.267,-2.2674,-2.2677,-2.262,-2.2621,-2.2622,0,0,0,0,0,0,-2.1242,-2.1416,-2.1449,-2.1577,-2.168,-2.1832,-2.1887,-2.1931,-2.2037,-2.2038,-2.2143,-2.2176,-2.2292,-2.2365,-2.2329,-2.2517,-2.2521,-2.2532,-2.2465,-2.2467,-2.2468,-2.2448,-2.2378,0,0,0,0,0,-2.1239,-2.1338,-2.1485,-2.1583,-2.1633,-2.175,-2.1814,-2.1873,-2.1985,-2.2029,-2.2129,-2.2235,-2.234,-2.2408,-2.2513,-2.2631,-2.2664,-2.2675,-2.2675,-2.2675,-2.2683,-2.2749,-2.2755,-2.2692,-2.2692,-2.2692,0,0,-2.1236,-2.1344,-2.14,-2.157,-2.1658,-2.1756,-2.1787,-2.1891,-2.1964,-2.2045,-2.2169,-2.2244,-2.2369,-2.249,-2.2549,-2.2555,-2.2708,-2.268,-2.2679,-2.2688,-2.2753,-2.2759,-2.2765,-2.2694,-2.2694,-2.2693,0,0,-2.1281,-2.1372,-2.1464,-2.155,-2.1681,-2.1758,-2.178,-2.1924,-2.1978,-2.2103,-2.2165,-2.2253,-2.2433,-2.2519,-2.2586,-2.2658,-2.2701,-2.2689,-2.2692,-2.2755,-2.276,-2.2765,-2.2789,-2.2797,-2.2697,-2.2697,-2.2697,0,-2.126,-2.1412,-2.1504,-2.1604,-2.1676,-2.1753,-2.1844,-2.1923,-2.2082,-2.2129,-2.2133,-2.2359,-2.2449,-2.259,-2.2607,-2.2659,-2.2686,-2.2673,-2.2752,-2.2758,-2.2763,-2.2788,-2.2797,-2.2695,-2.2695,-2.2695,-2.2695,0,-2.1379,-2.1483,-2.154,-2.1691,-2.1769,-2.1864,-2.1969,-2.2037,-2.2088,-2.2163,-2.2288,-2.2398,-2.2526,-2.2563,-2.2615,-2.2711,-2.271,-2.2731,-2.2738,-2.2766,-2.279,-2.2801,-2.2691,-2.2692,-2.2693,-2.2694,0,0,-2.1386,-2.1584,-2.1603,-2.1671,-2.182,-2.1902,-2.1998,-2.2123,-2.2178,-2.2284,-2.2366,-2.2515,-2.2535,-2.2611,-2.2672,-2.2727,-2.2775,-2.2742,-2.2746,-2.2743,-2.2885,-2.2868,-2.2878,-2.2803,-2.2805,-2.2807,-2.2874,0,-2.145,-2.1627,-2.1711,-2.1851,-2.1946,-2.2019,-2.2103,-2.2202,-2.2274,-2.2364,-2.2444,-2.2547,-2.2567,-2.2612,-2.267,-2.2757,-2.2805,-2.2753,-2.288,-2.2884,-2.2847,-2.2891,-2.2874,-2.2933,-2.2885,-2.2887,-2.2888,0,-2.1549,-2.1653,-2.1802,-2.1937,-2.198,-2.2054,-2.2173,-2.2259,-2.2372,-2.242,-2.2503,-2.2561,-2.2664,-2.2661,-2.2803,-2.2766,-2.2823,-2.2873,-2.2877,-2.2893,-2.2888,-2.2907,-2.2954,-2.2962,-2.2904,-2.2903,-2.2902,0,-2.1537,-2.1715,-2.1827,-2.1883,-2.2043,-2.2093,-2.2162,-2.2273,-2.2341,-2.2445,-2.2489,-2.2603,-2.2665,-2.2751,-2.2838,-2.2829,-2.2971,-2.2976,-2.3013,-2.3011,-2.3041,-2.3038,-2.3096,-2.3077,-2.3077,-2.3076,-2.3076,0,-2.16,-2.1688,-2.1823,-2.1892,-2.1991,-2.2085,-2.2181,-2.2255,-2.2353,-2.2436,-2.2505,-2.2581,-2.2691,-2.2781,-2.2849,-2.2955,-2.2983,-2.3024,-2.3041,-2.3018,-2.3012,-2.3057,-2.3055,-2.3079,-2.3078,-2.3078,-2.3077,0,-2.1605,-2.1699,-2.1825,-2.1965,-2.2002,-2.2069,-2.2189,-2.2257,-2.2331,-2.2435,-2.2464,-2.2581,-2.2689,-2.2784,-2.2928,-2.2974,-2.3082,-2.3103,-2.3044,-2.3053,-2.3084,-2.308,-2.3174,-2.319,-2.3159,-2.3159,-2.3159,0,-2.1639,-2.1708,-2.1854,-2.1915,-2.1982,-2.2079,-2.2148,-2.2242,-2.2311,-2.2442,-2.2494,-2.2607,-2.2703,-2.2873,-2.297,-2.3079,-2.3103,-2.3128,-2.312,-2.3094,-2.3103,-2.3097,-2.3104,-2.3128,-2.3128,-2.3128,-2.3128,0,-2.1689,-2.1731,-2.1829,-2.1941,-2.2022,-2.2115,-2.221,-2.2255,-2.2367,-2.244,-2.2552,-2.2625,-2.2771,-2.2882,-2.3001,-2.3071,-2.3117,-2.3129,-2.3144,-2.3121,-2.3083,-2.3103,-2.3043,-2.3127,-2.3127,-2.3127,-2.3127,-2.3127,-2.171,-2.1773,-2.1885,-2.1991,-2.2071,-2.2158,-2.2228,-2.231,-2.2404,-2.253,-2.2579,-2.2691,-2.2799,-2.2964,-2.3034,-2.3123,-2.3131,-2.3151,-2.3157,-2.316,-2.3156,-2.3068,-2.3145,-2.3145,-2.3145,-2.3145,-2.3145,0,-2.1762,-2.1837,-2.1933,-2.2063,-2.2145,-2.218,-2.2286,-2.2352,-2.2451,-2.2547,-2.2639,-2.2765,-2.2872,-2.2976,-2.3088,-2.3139,-2.3163,-2.3165,-2.3162,-2.3177,-2.3143,-2.3119,-2.3143,-2.3143,-2.3143,-2.3143,-2.3143,-2.3143,-2.18,-2.1908,-2.1963,-2.2111,-2.2186,-2.2296,-2.2354,-2.2433,-2.251,-2.2648,-2.2736,-2.2803,-2.2902,-2.3021,-2.312,-2.3148,-2.3185,-2.3182,-2.3215,-2.3181,-2.318,-2.3179,-2.3157,-2.3189,-2.3189,-2.3242,-2.3242,-2.3243]},{"header":{"parameterUnit":"m.s-1","parameterCategory":1,"la1":30.2991,"la2":30.254,"lo1":-89.0895,"lo2":-89.0444,"dy":0.0017,"dx":0.0017,"nx":28,"ny":28,"refTime":"2024-06-01T21:00:00:Z","depth":0,"parameterNumber":3,"parameterNumberName":"V-component_of_WINDS"},"data":[0,0,0,0,0,0,0,0,0,0,0,0,0,0,0,0,0,0,0,0,0,0,0,0,0,0,0,0,0,0,0,0,0,0,0,0,0,0,0,0,0,0,0,0,0,0,0,0,0,0,0,0,0,0,0,0,0,0,3.5953,3.5953,0,3.593,3.593,3.593,3.5916,3.5916,3.5916,3.5916,3.5888,3.5888,3.5887,0,0,0,0,0,0,0,0,0,0,0,0,0,3.5982,3.5981,3.5953,3.5953,3.5952,3.593,3.593,3.5929,3.5916,3.5916,3.5916,3.5916,3.5889,3.5888,3.5887,0,0,0,0,0,0,0,0,0,0,0,0,0,3.5965,3.5981,3.5953,3.5943,3.5942,3.593,3.593,3.5929,3.5916,3.5916,3.5916,3.5916,3.5889,3.5888,3.5887,3.5882,0,0,3.5884,3.5883,0,0,0,0,0,0,0,0,3.5966,3.5964,3.5945,3.5944,3.5942,3.5926,3.593,3.5913,3.5916,3.5926,3.5916,3.5916,3.5901,3.5899,3.5894,3.5881,3.5879,3.5884,3.5883,3.5882,3.5882,0,0,0,0,0,0,0,3.5967,3.5965,3.5944,3.5944,3.5943,3.5939,3.5936,3.5927,3.5914,3.5925,3.5924,3.5922,3.59,3.5895,3.5894,3.5879,3.5884,3.5883,3.5882,3.5882,3.5861,3.5861,0,0,0,0,0,0,3.597,3.5966,3.5944,3.5943,3.5954,3.5938,3.5936,3.5931,3.5914,3.5911,3.5922,3.5921,3.5897,3.5895,3.5893,3.5886,3.5882,3.5882,3.5881,3.5861,3.5861,3.5861,0,0,0,0,0,0,3.5971,3.5969,3.5945,3.5954,3.5951,3.5938,3.5933,3.5931,3.5926,3.5911,3.5909,3.592,3.5897,3.5894,3.5885,3.5885,3.5881,3.588,3.5861,3.5861,3.5861,3.5873,0,0,0,0,0,0,3.5972,3.5969,3.5968,3.5954,3.5951,3.5939,3.5933,3.593,3.5925,3.5924,3.5909,3.5906,3.5897,3.5887,3.5884,3.5884,3.5879,3.5861,3.5861,3.5861,3.5873,3.5874,3.5875,0,0,0,0,0,3.5973,3.5971,3.5968,3.5965,3.5949,3.5939,3.5937,3.5927,3.5925,3.5923,3.5914,3.5907,3.5886,3.5886,3.5883,3.5882,3.5861,3.5861,3.5861,3.5872,3.5874,3.5875,0,0,0,0,0,0,3.5983,3.5969,3.5965,3.5959,3.5951,3.5937,3.5934,3.5929,3.592,3.5919,3.5906,3.5903,3.5896,3.5888,3.5888,3.5877,3.5872,3.5872,3.5882,3.5883,3.5884,3.5886,3.5878,0,0,0,0,0,3.5984,3.5979,3.5967,3.5962,3.5959,3.5947,3.5943,3.5936,3.5927,3.5923,3.5913,3.5902,3.5894,3.5888,3.5879,3.5872,3.5868,3.587,3.5871,3.5871,3.5871,3.5867,3.5868,3.5862,3.5862,3.5861,0,0,3.5987,3.5979,3.5976,3.5964,3.5957,3.5951,3.5944,3.5938,3.5933,3.5921,3.5913,3.5905,3.5893,3.5885,3.5881,3.5878,3.5872,3.5872,3.5872,3.5871,3.5867,3.5868,3.5869,3.5862,3.5862,3.5862,0,0,3.5989,3.5983,3.5979,3.5972,3.5962,3.5955,3.5954,3.5942,3.5937,3.5928,3.592,3.5913,3.5898,3.589,3.5884,3.5885,3.5878,3.5882,3.5887,3.5883,3.5884,3.5884,3.5884,3.5885,3.5882,3.5882,3.5882,0,3.5994,3.5985,3.5977,3.5972,3.5966,3.5958,3.5953,3.5947,3.5933,3.593,3.5927,3.5909,3.59,3.5891,3.5892,3.5887,3.5885,3.5884,3.5885,3.5885,3.5885,3.5885,3.5885,3.5883,3.5883,3.5882,3.5882,0,3.5991,3.5986,3.5983,3.5973,3.5968,3.5962,3.5953,3.5948,3.5943,3.5936,3.5927,3.5917,3.5906,3.5903,3.5897,3.5893,3.5892,3.5887,3.5882,3.5886,3.5886,3.5886,3.5883,3.5883,3.5883,3.5883,0,0,3.5998,3.5984,3.5983,3.5979,3.5968,3.5963,3.5957,3.5948,3.5945,3.5936,3.5931,3.5919,3.5916,3.5909,3.5901,3.5898,3.59,3.5894,3.5894,3.5896,3.5896,3.5899,3.5899,3.5896,3.5896,3.5896,3.5897,0,3.5998,3.599,3.5982,3.5976,3.597,3.5962,3.5958,3.595,3.5943,3.5937,3.5929,3.5922,3.5917,3.5913,3.591,3.5901,3.59,3.5901,3.589,3.589,3.5893,3.5899,3.5903,3.5904,3.5897,3.5897,3.5897,0,3.5997,3.5991,3.5985,3.5975,3.5972,3.5968,3.596,3.5954,3.5945,3.5941,3.5934,3.5927,3.5921,3.5917,3.5908,3.5908,3.5904,3.5899,3.5899,3.5897,3.5893,3.5898,3.5904,3.5905,3.5896,3.5897,3.5897,0,3.6003,3.5993,3.5988,3.5984,3.5973,3.597,3.5965,3.5956,3.5952,3.5944,3.5941,3.5932,3.5927,3.592,3.5911,3.5909,3.5902,3.5898,3.5898,3.5898,3.5896,3.5896,3.5902,3.5894,3.5893,3.5893,3.5893,0,3.6004,3.6001,3.599,3.5987,3.5983,3.5975,3.597,3.5964,3.5957,3.5952,3.5944,3.5939,3.5927,3.5921,3.5913,3.5907,3.5905,3.59,3.5898,3.5901,3.5902,3.5897,3.5897,3.5894,3.5894,3.5894,3.5894,0,3.601,3.6003,3.5997,3.5987,3.5985,3.5982,3.5973,3.5969,3.5963,3.5957,3.5955,3.5944,3.5937,3.5927,3.5916,3.5911,3.5905,3.5902,3.5909,3.5908,3.5908,3.5908,3.5911,3.5911,3.5903,3.5903,3.5903,0,3.6011,3.6008,3.5999,3.5996,3.5991,3.5986,3.5982,3.5973,3.5969,3.596,3.5957,3.5949,3.5943,3.5931,3.5921,3.5913,3.591,3.5911,3.5908,3.5911,3.591,3.591,3.591,3.5912,3.5912,3.5912,3.5912,0,3.6014,3.6011,3.6006,3.6,3.5995,3.5989,3.5983,3.5981,3.5971,3.5967,3.596,3.5955,3.5945,3.5937,3.5927,3.5921,3.5915,3.5913,3.5913,3.5915,3.5919,3.5918,3.5911,3.5913,3.5913,3.5913,3.5913,3.5913,3.6017,3.6015,3.6008,3.6003,3.5998,3.5992,3.5989,3.5983,3.5977,3.5969,3.5964,3.5958,3.5949,3.5936,3.593,3.5925,3.5922,3.5921,3.5921,3.5921,3.5922,3.5921,3.5923,3.5923,3.5923,3.5923,3.5923,0,3.602,3.6015,3.6011,3.6003,3.5999,3.5995,3.5989,3.5985,3.598,3.5973,3.5967,3.5959,3.5952,3.5943,3.5935,3.5932,3.5929,3.593,3.593,3.5929,3.5925,3.5926,3.5933,3.5933,3.5933,3.5933,3.5933,3.5933,3.6021,3.6016,3.6013,3.6006,3.6001,3.5996,3.5992,3.5987,3.5982,3.5974,3.5969,3.5964,3.5956,3.5948,3.5941,3.5938,3.5936,3.5938,3.5934,3.593,3.5929,3.5928,3.5929,3.5937,3.5937,3.5939,3.5939,3.5939]}]]